Volver al catálogo

STARLINK-36968

ActivoComunicacionesVLEO
NORAD 67995·PAYLOAD·🇺🇸 United States

Lanzado Feb 27, 2026 desde Vandenberg Space Force Base

Loading…

Próximos Pases (próximas 24 horas)

TLE

ActualizadoSource: CelesTrak SupGP

Época: Sep 15, 2026, 03:06 UTC

1 67995C 26039K   26258.12965278 -.00028424  00000+0 -10294-2 0  2586
2 67995  43.0039  58.8505 0001485 266.4420 272.2054 15.27597282    11

Sigue STARLINK-36968 en tiempo real con AllMySat

Download on the App Store